[[{"header":{"parameterUnit":"m.s-1","parameterCategory":1,"la1":30.2991,"la2":30.254,"lo1":-89.0895,"lo2":-89.0444,"dy":0.0017,"dx":0.0017,"nx":28,"ny":28,"refTime":"2025-05-21T03:00:00:Z","depth":0,"parameterNumber":2,"parameterNumberName":"U-component_of_WINDS"},"data":[0,0,0,0,0,0,0,0,0,0,0,0,0,0,0,0,0,0,0,0,0,0,0,0,0,0,0,0,0,0,0,0,0,0,0,0,0,0,0,0,0,0,0,0,0,0,0,0,0,0,0,0,0,0,0,0,0,0,1.2705,1.2705,0,1.2738,1.2738,1.2739,1.266,1.2657,1.2655,1.2653,1.2691,1.2694,1.2697,0,0,0,0,0,0,0,0,0,0,0,0,0,1.2577,1.258,1.2705,1.2705,1.2705,1.2738,1.2738,1.2739,1.266,1.2657,1.2654,1.2651,1.2689,1.2693,1.2697,0,0,0,0,0,0,0,0,0,0,0,0,0,1.2624,1.258,1.2705,1.267,1.2667,1.2738,1.2738,1.2739,1.2661,1.2657,1.2653,1.265,1.2688,1.2693,1.2698,1.2804,0,0,1.2713,1.2715,0,0,0,0,0,0,0,0,1.2621,1.2628,1.2675,1.2673,1.267,1.2691,1.2707,1.2761,1.2662,1.2664,1.2652,1.2648,1.2694,1.2698,1.2713,1.2806,1.2808,1.2714,1.2717,1.2719,1.272,0,0,0,0,0,0,0,1.2618,1.2627,1.2718,1.2676,1.2673,1.2654,1.2657,1.2717,1.27,1.2663,1.2657,1.2662,1.2692,1.2708,1.2713,1.2808,1.2714,1.2718,1.2721,1.2723,1.299,1.2994,0,0,0,0,0,0,1.2619,1.2624,1.2717,1.2719,1.2635,1.266,1.2662,1.2688,1.2699,1.2697,1.2665,1.2658,1.2701,1.2707,1.2714,1.2839,1.2719,1.2724,1.2727,1.2986,1.2991,1.2995,0,0,0,0,0,0,1.2616,1.2628,1.2715,1.267,1.268,1.2666,1.2695,1.2691,1.2707,1.27,1.2697,1.2685,1.2699,1.2707,1.2782,1.2839,1.2726,1.273,1.2981,1.2988,1.2993,1.309,0,0,0,0,0,0,1.2613,1.2627,1.2667,1.2671,1.2682,1.2782,1.2699,1.2694,1.2715,1.2706,1.2718,1.2716,1.2696,1.2775,1.2787,1.2844,1.2734,1.2976,1.2984,1.2991,1.3081,1.3098,1.3113,0,0,0,0,0,1.2608,1.2693,1.2669,1.2681,1.2731,1.2785,1.2792,1.2766,1.272,1.276,1.2756,1.2716,1.2831,1.2783,1.2796,1.2856,1.2972,1.2982,1.2991,1.3074,1.3095,1.3113,0,0,0,0,0,0,1.2697,1.2693,1.2666,1.2755,1.2771,1.2772,1.2822,1.2789,1.2819,1.281,1.2778,1.2781,1.2862,1.2867,1.2813,1.2959,1.2894,1.2906,1.2953,1.2973,1.2988,1.2986,1.2739,0,0,0,0,0,1.2727,1.277,1.2765,1.2844,1.2853,1.2836,1.2859,1.2837,1.2853,1.286,1.2861,1.2879,1.2919,1.2946,1.2983,1.3082,1.3083,1.3129,1.3145,1.3158,1.3169,1.3221,1.3241,1.3026,1.3026,1.3025,0,0,1.2789,1.2792,1.2822,1.2861,1.2871,1.2917,1.2842,1.2895,1.2929,1.2868,1.2938,1.294,1.2958,1.3046,1.3084,1.3052,1.3229,1.3169,1.318,1.3184,1.3233,1.3253,1.3271,1.3032,1.3031,1.303,0,0,1.2925,1.2932,1.2998,1.3009,1.3025,1.3013,1.3029,1.3035,1.3033,1.3103,1.3058,1.3099,1.3169,1.3183,1.32,1.3342,1.3306,1.3355,1.3438,1.3489,1.3506,1.3521,1.3571,1.359,1.3366,1.3366,1.3366,0,1.3001,1.3067,1.3037,1.3092,1.3111,1.3057,1.3124,1.3137,1.3164,1.3179,1.3142,1.3228,1.3236,1.3326,1.336,1.3375,1.3393,1.3353,1.3506,1.352,1.3534,1.3582,1.3601,1.3372,1.3371,1.3371,1.337,0,1.3159,1.3207,1.3258,1.3284,1.3309,1.3371,1.335,1.3379,1.3356,1.3348,1.3421,1.3428,1.3465,1.3485,1.3464,1.3572,1.3551,1.3511,1.3445,1.3561,1.3605,1.3623,1.338,1.3378,1.3376,1.3375,0,0,1.3353,1.336,1.338,1.3391,1.3404,1.344,1.3499,1.3534,1.356,1.358,1.3629,1.3689,1.3651,1.367,1.365,1.3695,1.3807,1.3649,1.3649,1.3678,1.3927,1.3957,1.3979,1.3783,1.3787,1.3789,1.3925,0,1.3487,1.3586,1.3561,1.366,1.3703,1.3653,1.3704,1.3718,1.3713,1.375,1.3744,1.3787,1.3734,1.3745,1.3788,1.3784,1.3857,1.3774,1.3829,1.3832,1.3826,1.4002,1.4034,1.4162,1.3943,1.3946,1.3948,0,1.3657,1.3683,1.3786,1.3792,1.3809,1.3855,1.3885,1.3921,1.3936,1.3929,1.395,1.392,1.3979,1.3913,1.3995,1.3939,1.396,1.3962,1.3966,1.397,1.3896,1.4011,1.4202,1.4222,1.3975,1.3973,1.3971,0,1.3787,1.3848,1.3917,1.3929,1.3937,1.3971,1.3976,1.3987,1.401,1.4036,1.4051,1.4085,1.4103,1.413,1.4111,1.4065,1.4196,1.4128,1.4192,1.4193,1.4222,1.422,1.442,1.4237,1.4236,1.4236,1.4235,0,1.394,1.4005,1.3976,1.4019,1.409,1.4061,1.4133,1.4133,1.4143,1.4186,1.4145,1.4186,1.4158,1.4197,1.4183,1.4252,1.4261,1.4258,1.4253,1.4261,1.4262,1.4274,1.4265,1.4241,1.424,1.4239,1.4238,0,1.4097,1.408,1.4152,1.4154,1.4156,1.4209,1.421,1.4251,1.4242,1.4297,1.4308,1.4295,1.4339,1.4322,1.437,1.436,1.4449,1.4433,1.4443,1.4439,1.4504,1.4498,1.4718,1.4745,1.4545,1.4547,1.4549,0,1.4195,1.4244,1.425,1.4275,1.4283,1.4324,1.4346,1.4319,1.4344,1.4365,1.4403,1.4443,1.4474,1.4546,1.4542,1.4578,1.4563,1.4637,1.4568,1.4574,1.4563,1.456,1.4565,1.4651,1.4654,1.4655,1.4657,0,1.4371,1.436,1.4393,1.4424,1.4451,1.4474,1.4494,1.4517,1.4491,1.4522,1.4565,1.4589,1.4637,1.4677,1.4709,1.4716,1.4683,1.4679,1.4695,1.4704,1.4708,1.4706,1.4481,1.4674,1.4672,1.4671,1.467,1.4669,1.4501,1.4542,1.4553,1.4591,1.4603,1.4622,1.466,1.4655,1.4691,1.4726,1.4709,1.476,1.4774,1.4813,1.4825,1.4865,1.4836,1.486,1.4866,1.4872,1.4881,1.4702,1.4871,1.487,1.487,1.4869,1.4869,0,1.4674,1.4679,1.4714,1.4742,1.4773,1.4738,1.4758,1.4786,1.483,1.4846,1.4876,1.4927,1.4966,1.4965,1.5001,1.5033,1.5019,1.5044,1.5041,1.5043,1.4905,1.4886,1.5055,1.5055,1.5055,1.5055,1.5055,1.5055,1.4768,1.4835,1.4826,1.4898,1.4902,1.4951,1.4965,1.4983,1.4995,1.5053,1.5084,1.5083,1.5092,1.5128,1.5163,1.5162,1.5177,1.5208,1.5201,1.5071,1.5053,1.5035,1.5018,1.5211,1.5211,1.5336,1.5337,1.5338]},{"header":{"parameterUnit":"m.s-1","parameterCategory":1,"la1":30.2991,"la2":30.254,"lo1":-89.0895,"lo2":-89.0444,"dy":0.0017,"dx":0.0017,"nx":28,"ny":28,"refTime":"2025-05-21T03:00:00:Z","depth":0,"parameterNumber":3,"parameterNumberName":"V-component_of_WINDS"},"data":[0,0,0,0,0,0,0,0,0,0,0,0,0,0,0,0,0,0,0,0,0,0,0,0,0,0,0,0,0,0,0,0,0,0,0,0,0,0,0,0,0,0,0,0,0,0,0,0,0,0,0,0,0,0,0,0,0,0,0.4858,0.4857,0,0.4773,0.4772,0.4771,0.4673,0.4672,0.4671,0.4669,0.4581,0.4581,0.458,0,0,0,0,0,0,0,0,0,0,0,0,0,0.4936,0.4935,0.4858,0.4857,0.4856,0.4773,0.4772,0.4771,0.4674,0.4672,0.467,0.4669,0.4582,0.4581,0.4579,0,0,0,0,0,0,0,0,0,0,0,0,0,0.4882,0.4935,0.4858,0.4798,0.4791,0.4773,0.4772,0.477,0.4674,0.4672,0.467,0.4668,0.4582,0.4581,0.4579,0.4614,0,0,0.4575,0.4574,0,0,0,0,0,0,0,0,0.4885,0.4879,0.4808,0.4802,0.4795,0.4731,0.4767,0.4718,0.4675,0.4719,0.4669,0.4667,0.4633,0.4627,0.4616,0.461,0.4606,0.4575,0.4574,0.4573,0.4573,0,0,0,0,0,0,0,0.4889,0.4882,0.4824,0.4807,0.4799,0.4774,0.4764,0.4757,0.4689,0.4715,0.4707,0.4699,0.4629,0.4618,0.4613,0.4605,0.4575,0.4573,0.4572,0.4572,0.4621,0.4623,0,0,0,0,0,0,0.4902,0.4886,0.4827,0.4822,0.4835,0.4775,0.4763,0.4754,0.4689,0.4677,0.4701,0.4694,0.4621,0.4615,0.461,0.4645,0.4573,0.4572,0.4571,0.4619,0.4621,0.4623,0,0,0,0,0,0,0.4904,0.4897,0.483,0.4852,0.4841,0.4776,0.4766,0.4753,0.4742,0.4678,0.4666,0.4701,0.4619,0.4612,0.4613,0.4641,0.4571,0.457,0.4616,0.4619,0.4622,0.4717,0,0,0,0,0,0,0.4906,0.4899,0.4912,0.4853,0.4841,0.4836,0.4768,0.4753,0.474,0.4731,0.4676,0.4665,0.4617,0.4616,0.4612,0.4637,0.4569,0.4613,0.4617,0.4621,0.4711,0.4723,0.4733,0,0,0,0,0,0.491,0.4942,0.4913,0.4906,0.4855,0.4838,0.4831,0.4776,0.4742,0.4754,0.4713,0.4666,0.4638,0.4617,0.4611,0.4637,0.4611,0.4616,0.4621,0.4706,0.472,0.4733,0,0,0,0,0,0,0.5006,0.4933,0.49,0.4914,0.4883,0.4821,0.4835,0.4793,0.477,0.4763,0.4695,0.4684,0.4693,0.4665,0.4642,0.4666,0.4618,0.4622,0.4684,0.4698,0.4708,0.4715,0.4567,0,0,0,0,0,0.5028,0.5021,0.4957,0.4976,0.4962,0.4902,0.4892,0.4852,0.4817,0.4803,0.4762,0.4729,0.4713,0.4704,0.4685,0.4706,0.4692,0.4721,0.4732,0.4741,0.4746,0.4753,0.4765,0.464,0.464,0.4639,0,0,0.5076,0.5035,0.5034,0.4994,0.4965,0.4958,0.4891,0.4887,0.488,0.4802,0.4801,0.477,0.4729,0.474,0.4742,0.4717,0.4777,0.4748,0.4756,0.4755,0.476,0.4772,0.4782,0.4643,0.4642,0.4642,0,0,0.5158,0.5126,0.5138,0.511,0.5067,0.5026,0.5029,0.4974,0.495,0.4948,0.4889,0.488,0.4854,0.4826,0.4809,0.488,0.4836,0.4876,0.4934,0.4943,0.4952,0.4961,0.4985,0.4995,0.4881,0.4881,0.4881,0,0.5222,0.5209,0.5149,0.5148,0.5132,0.5061,0.5071,0.5047,0.5001,0.4991,0.4962,0.4927,0.4895,0.4898,0.4915,0.4904,0.4904,0.4882,0.4956,0.4964,0.4971,0.4993,0.5003,0.4886,0.4885,0.4885,0.4884,0,0.5289,0.5281,0.5295,0.5252,0.5237,0.5242,0.5183,0.5175,0.5137,0.5099,0.5097,0.5055,0.5026,0.5024,0.4986,0.5022,0.5007,0.4968,0.4918,0.4989,0.5009,0.5017,0.4893,0.4891,0.489,0.4889,0,0,0.543,0.5352,0.5359,0.5338,0.5285,0.5277,0.5278,0.525,0.5245,0.5215,0.5214,0.5192,0.5156,0.5137,0.5095,0.5103,0.516,0.5062,0.506,0.5082,0.5196,0.5225,0.5236,0.5131,0.5132,0.5133,0.5199,0,0.5502,0.55,0.5446,0.5459,0.545,0.5382,0.5383,0.535,0.5315,0.5302,0.5263,0.5249,0.5202,0.519,0.5194,0.5153,0.5182,0.5147,0.5128,0.5128,0.5141,0.5247,0.5278,0.5342,0.5206,0.5208,0.5209,0,0.5586,0.556,0.5573,0.5518,0.5513,0.5515,0.5484,0.5473,0.5434,0.5407,0.5386,0.5338,0.5335,0.5288,0.5282,0.5259,0.5248,0.5227,0.5228,0.5224,0.5173,0.5245,0.5361,0.5371,0.5221,0.522,0.5219,0,0.5686,0.5655,0.5658,0.5642,0.5579,0.5582,0.5556,0.5515,0.5501,0.5474,0.5464,0.5438,0.5423,0.5403,0.5349,0.532,0.5349,0.5298,0.5327,0.5328,0.5336,0.5336,0.5452,0.533,0.533,0.533,0.5329,0,0.5772,0.5782,0.5702,0.5705,0.5713,0.5651,0.5661,0.5628,0.5592,0.5586,0.5526,0.5521,0.5451,0.5438,0.5396,0.5397,0.5391,0.5369,0.5357,0.5374,0.5377,0.5366,0.536,0.5332,0.5332,0.5331,0.5331,0,0.5886,0.5833,0.5832,0.5772,0.5757,0.5766,0.5714,0.5713,0.5674,0.5667,0.5662,0.56,0.5582,0.5526,0.5494,0.5466,0.5479,0.5458,0.5492,0.5485,0.5516,0.5514,0.5628,0.564,0.5512,0.5513,0.5514,0,0.5944,0.595,0.5891,0.5882,0.5859,0.5846,0.5832,0.577,0.5758,0.5713,0.5717,0.5694,0.5673,0.5646,0.5598,0.5573,0.555,0.5592,0.5546,0.5562,0.555,0.555,0.555,0.5602,0.5604,0.5605,0.5607,0,0.6053,0.6026,0.6008,0.598,0.5965,0.594,0.5912,0.5908,0.5839,0.5828,0.5809,0.5792,0.5759,0.5736,0.5703,0.5675,0.5629,0.5621,0.5626,0.5643,0.5663,0.5652,0.5519,0.5619,0.5618,0.5617,0.5616,0.5616,0.614,0.6142,0.61,0.6082,0.6054,0.6029,0.6025,0.5984,0.5967,0.5936,0.59,0.5885,0.5844,0.5795,0.5771,0.5757,0.5733,0.574,0.5742,0.5745,0.5753,0.5666,0.5751,0.5751,0.575,0.575,0.575,0,0.6245,0.6214,0.6198,0.616,0.6146,0.6104,0.607,0.606,0.6048,0.6014,0.5994,0.5971,0.5949,0.5899,0.5872,0.5871,0.5849,0.5865,0.5865,0.5859,0.5776,0.5774,0.5883,0.5883,0.5883,0.5883,0.5883,0.5883,0.6298,0.6298,0.6267,0.6253,0.6222,0.6207,0.6191,0.6167,0.614,0.6118,0.6099,0.6066,0.6026,0.5995,0.5973,0.5958,0.5951,0.5974,0.5954,0.5877,0.5865,0.5853,0.585,0.5974,0.5974,0.6037,0.6037,0.6038]}]]